| time (UTC) | temp F | wind direction | speed MPH | gust MPH | rain 1hr in | rain 24hr in | rain mn in | humidity % | barometer mb |
| 20260506145141 | 84 | 115 | 3.0 | 5.0 | 0.00 | 0.00 | 0.00 | 48 | 1017.0 |
| 20260506144640 | 83 | 37 | 1.0 | 6.0 | 0.00 | 0.00 | 0.00 | 49 | 1017.0 |
| 20260506144141 | 83 | 317 | 3.0 | 7.0 | 0.00 | 0.00 | 0.00 | 48 | 1017.0 |
| 20260506143641 | 84 | 269 | 7.0 | 11.0 | 0.00 | 0.00 | 0.00 | 47 | 1017.0 |
| 20260506143141 | 84 | 254 | 3.0 | 5.0 | 0.00 | 0.00 | 0.00 | 48 | 1017.0 |
| 20260506142642 | 83 | 242 | 1.0 | 4.0 | 0.00 | 0.00 | 0.00 | 51 | 1017.0 |
| 20260506142141 | 82 | 50 | 2.0 | 3.0 | 0.00 | 0.00 | 0.00 | 52 | 1017.0 |
| 20260506141640 | 82 | 188 | 2.0 | 8.0 | 0.00 | 0.00 | 0.00 | 51 | 1017.0 |
| 20260506141141 | 82 | 298 | 1.0 | 8.0 | 0.00 | 0.00 | 0.00 | 51 | 1017.0 |
| 20260506140641 | 82 | 316 | 4.0 | 8.0 | 0.00 | 0.00 | 0.00 | 50 | 1017.0 |
| 20260506140141 | 81 | 225 | 4.0 | 5.0 | 0.00 | 0.00 | 0.00 | 52 | 1017.0 |
| 20260506135640 | 80 | 201 | 3.0 | 3.0 | 0.00 | 0.00 | 0.00 | 54 | 1017.0 |
| 20260506135142 | 80 | 264 | 2.0 | 4.0 | 0.00 | 0.00 | 0.00 | 56 | 1017.0 |
| 20260506134641 | 79 | 224 | 0.0 | 2.0 | 0.00 | 0.00 | 0.00 | 57 | 1017.0 |
| 20260506134141 | 79 | 306 | 3.0 | 5.0 | 0.00 | 0.00 | 0.00 | 57 | 1017.0 |
| 20260506133642 | 79 | 193 | 1.0 | 4.0 | 0.00 | 0.00 | 0.00 | 57 | 1017.0 |
| 20260506133141 | 80 | 238 | 4.0 | 4.0 | 0.00 | 0.00 | 0.00 | 56 | 1017.0 |
| 20260506132641 | 79 | 257 | 2.0 | 2.0 | 0.00 | 0.00 | 0.00 | 59 | 1017.0 |
| 20260506132142 | 79 | 206 | 2.0 | 6.0 | 0.00 | 0.00 | 0.00 | 57 | 1017.0 |
| 20260506131641 | 79 | 209 | 1.0 | 3.0 | 0.00 | 0.00 | 0.00 | 58 | 1017.0 |
| 20260506131144 | 78 | 197 | 3.0 | 3.0 | 0.00 | 0.00 | 0.00 | 59 | 1017.0 |
| 20260506130640 | 77 | 258 | 2.0 | 2.0 | 0.00 | 0.00 | 0.00 | 61 | 1017.0 |
| 20260506130141 | 77 | 219 | 2.0 | 2.0 | 0.00 | 0.00 | 0.00 | 61 | 1017.0 |
| 20260506125640 | 76 | 271 | 3.0 | 3.0 | 0.00 | 0.00 | 0.00 | 60 | 1017.0 |
| 20260506125142 | 76 | 237 | 0.0 | 2.0 | 0.00 | 0.00 | 0.00 | 62 | 1017.0 |
| 20260506124641 | 75 | 312 | 0.0 | 4.0 | 0.00 | 0.00 | 0.00 | 63 | 1017.0 |
| 20260506124141 | 74 | 262 | 2.0 | 2.0 | 0.00 | 0.00 | 0.00 | 64 | 1017.0 |
| 20260506123641 | 73 | 159 | 0.0 | 2.0 | 0.00 | 0.00 | 0.00 | 65 | 1017.0 |
| 20260506123142 | 73 | 108 | 1.0 | 4.0 | 0.00 | 0.00 | 0.00 | 66 | 1016.0 |
| 20260506122641 | 72 | 273 | 0.0 | 2.0 | 0.00 | 0.00 | 0.00 | 66 | 1017.0 |
| 20260506122141 | 71 | 171 | 0.0 | 6.0 | 0.00 | 0.00 | 0.00 | 67 | 1016.0 |
| 20260506121640 | 71 | 185 | 0.0 | 3.0 | 0.00 | 0.00 | 0.00 | 69 | 1016.0 |
| 20260506121141 | 70 | 210 | 0.0 | 3.0 | 0.00 | 0.00 | 0.00 | 68 | 1016.0 |
| 20260506120640 | 69 | 281 | 0.0 | 2.0 | 0.00 | 0.00 | 0.00 | 69 | 1017.0 |
| 20260506120142 | 69 | 223 | 0.0 | 2.0 | 0.00 | 0.00 | 0.00 | 70 | 1016.0 |
| 20260506115640 | 68 | 180 | 0.0 | 3.0 | 0.00 | 0.00 | 0.00 | 71 | 1016.0 |
| 20260506115141 | 68 | 165 | 1.0 | 1.0 | 0.00 | 0.00 | 0.00 | 72 | 1017.0 |
| 20260506114641 | 67 | 175 | 0.0 | 2.0 | 0.00 | 0.00 | 0.00 | 74 | 1016.0 |
| 20260506114142 | 66 | 241 | 3.0 | 3.0 | 0.00 | 0.00 | 0.00 | 75 | 1016.0 |
| 20260506113642 | 65 | 233 | 2.0 | 3.0 | 0.00 | 0.00 | 0.00 | 76 | 1016.0 |
| 20260506113141 | 65 | 201 | 3.0 | 3.0 | 0.00 | 0.00 | 0.00 | 78 | 1016.0 |
| 20260506112640 | 64 | 206 | 2.0 | 2.0 | 0.00 | 0.00 | 0.00 | 79 | 1016.0 |
| 20260506112143 | 63 | 217 | 2.0 | 2.0 | 0.00 | 0.00 | 0.00 | 80 | 1016.0 |
| 20260506111640 | 63 | 227 | 2.0 | 2.0 | 0.00 | 0.00 | 0.00 | 81 | 1016.0 |
| 20260506111141 | 63 | 209 | 2.0 | 2.0 | 0.00 | 0.00 | 0.00 | 81 | 1016.0 |
| 20260506110640 | 62 | 203 | 2.0 | 2.0 | 0.00 | 0.00 | 0.00 | 81 | 1016.0 |
| 20260506110143 | 62 | 229 | 2.0 | 3.0 | 0.00 | 0.00 | 0.00 | 82 | 1016.0 |
| 20260506105643 | 62 | 205 | 2.0 | 2.0 | 0.00 | 0.00 | 0.00 | 82 | 1016.0 |
| 20260506105141 | 62 | 224 | 0.0 | 2.0 | 0.00 | 0.00 | 0.00 | 82 | 1016.0 |
| 20260506104640 | 62 | 219 | 1.0 | 2.0 | 0.00 | 0.00 | 0.00 | 82 | 1016.0 |
| 20260506104140 | 62 | 209 | 2.0 | 2.0 | 0.00 | 0.00 | 0.00 | 82 | 1016.0 |
| 20260506103642 | 62 | 196 | 2.0 | 2.0 | 0.00 | 0.00 | 0.00 | 82 | 1016.0 |
| 20260506103141 | 62 | 217 | 1.0 | 2.0 | 0.00 | 0.00 | 0.00 | 82 | 1016.0 |
| 20260506102643 | 62 | 209 | 0.0 | 0.0 | 0.00 | 0.00 | 0.00 | 82 | 1016.0 |
| 20260506102141 | 62 | 227 | 0.0 | 0.0 | 0.00 | 0.00 | 0.00 | 81 | 1016.0 |
| 20260506101641 | 62 | 221 | 0.0 | 0.0 | 0.00 | 0.00 | 0.00 | 81 | 1016.0 |
| 20260506101141 | 62 | 221 | 0.0 | 1.0 | 0.00 | 0.00 | 0.00 | 81 | 1015.0 |
| 20260506100640 | 62 | 220 | 0.0 | 0.0 | 0.00 | 0.00 | 0.00 | 81 | 1015.0 |
| 20260506100143 | 62 | 214 | 1.0 | 2.0 | 0.00 | 0.00 | 0.00 | 81 | 1015.0 |
| 20260506095641 | 62 | 210 | 2.0 | 2.0 | 0.00 | 0.00 | 0.00 | 81 | 1015.0 |
| 20260506095140 | 62 | 219 | 2.0 | 2.0 | 0.00 | 0.00 | 0.00 | 81 | 1015.0 |
| 20260506094640 | 62 | 222 | 0.0 | 1.0 | 0.00 | 0.00 | 0.00 | 81 | 1015.0 |
| 20260506094141 | 62 | 224 | 0.0 | 0.0 | 0.00 | 0.00 | 0.00 | 81 | 1016.0 |
| 20260506093640 | 62 | 220 | 0.0 | 0.0 | 0.00 | 0.00 | 0.00 | 81 | 1016.0 |
| 20260506093140 | 62 | 225 | 0.0 | 0.0 | 0.00 | 0.00 | 0.00 | 81 | 1016.0 |
| 20260506092641 | 62 | 200 | 0.0 | 0.0 | 0.00 | 0.00 | 0.00 | 81 | 1016.0 |
| 20260506092142 | 62 | 226 | 0.0 | 0.0 | 0.00 | 0.00 | 0.00 | 80 | 1016.0 |
| 20260506091640 | 63 | 237 | 0.0 | 0.0 | 0.00 | 0.00 | 0.00 | 80 | 1016.0 |
| 20260506091140 | 63 | 205 | 0.0 | 1.0 | 0.00 | 0.00 | 0.00 | 80 | 1016.0 |
| 20260506090643 | 63 | 218 | 0.0 | 0.0 | 0.00 | 0.00 | 0.00 | 80 | 1016.0 |
| 20260506090140 | 63 | 229 | 0.0 | 0.0 | 0.00 | 0.00 | 0.00 | 80 | 1016.0 |
| 20260506085640 | 63 | 231 | 0.0 | 3.0 | 0.00 | 0.00 | 0.00 | 80 | 1016.0 |
| 20260506085140 | 63 | 215 | 0.0 | 0.0 | 0.00 | 0.00 | 0.00 | 79 | 1016.0 |
| 20260506084642 | 63 | 230 | 0.0 | 0.0 | 0.00 | 0.00 | 0.00 | 79 | 1016.0 |
| 20260506084140 | 63 | 241 | 0.0 | 0.0 | 0.00 | 0.00 | 0.00 | 79 | 1016.0 |
| 20260506083641 | 63 | 227 | 0.0 | 0.0 | 0.00 | 0.00 | 0.00 | 79 | 1016.0 |
| 20260506083140 | 63 | 219 | 0.0 | 0.0 | 0.00 | 0.00 | 0.00 | 79 | 1016.0 |
| 20260506082642 | 64 | 221 | 0.0 | 0.0 | 0.00 | 0.00 | 0.00 | 79 | 1016.0 |
| 20260506082141 | 64 | 228 | 0.0 | 0.0 | 0.00 | 0.00 | 0.00 | 79 | 1016.0 |
| 20260506081641 | 64 | 213 | 0.0 | 0.0 | 0.00 | 0.00 | 0.00 | 79 | 1015.0 |
| 20260506081141 | 64 | 219 | 2.0 | 2.0 | 0.00 | 0.00 | 0.00 | 79 | 1015.0 |
| 20260506080640 | 64 | 202 | 2.0 | 3.0 | 0.00 | 0.00 | 0.00 | 79 | 1015.0 |
| 20260506080141 | 64 | 202 | 0.0 | 0.0 | 0.00 | 0.00 | 0.00 | 79 | 1015.0 |
| 20260506073159 | 63 | 277 | 1.0 | 3.0 | 0.00 | 0.00 | 0.00 | 80 | 1015.0 |
| 20260506072641 | 63 | 211 | 2.0 | 2.0 | 0.00 | 0.00 | 0.00 | 80 | 1015.0 |
| 20260506072140 | 63 | 237 | 1.0 | 2.0 | 0.00 | 0.00 | 0.00 | 80 | 1015.0 |
| 20260506071644 | 64 | 221 | 0.0 | 2.0 | 0.00 | 0.00 | 0.00 | 80 | 1015.0 |
| 20260506071141 | 63 | 235 | 2.0 | 2.0 | 0.00 | 0.00 | 0.00 | 80 | 1015.0 |
| 20260506070641 | 64 | 210 | 1.0 | 2.0 | 0.00 | 0.00 | 0.00 | 80 | 1015.0 |
| 20260506070148 | 64 | 188 | 1.0 | 3.0 | 0.00 | 0.00 | 0.00 | 80 | 1015.0 |
| 20260506062140 | 64 | 192 | 2.0 | 2.0 | 0.00 | 0.00 | 0.00 | 79 | 1016.0 |
| 20260506061641 | 64 | 223 | 1.0 | 1.0 | 0.00 | 0.00 | 0.00 | 79 | 1016.0 |
| 20260506061140 | 64 | 168 | 2.0 | 2.0 | 0.00 | 0.00 | 0.00 | 79 | 1016.0 |
| 20260506060640 | 64 | 202 | 0.0 | 1.0 | 0.00 | 0.00 | 0.00 | 78 | 1016.0 |
| 20260506060141 | 64 | 217 | 0.0 | 1.0 | 0.00 | 0.00 | 0.00 | 78 | 1016.0 |
| 20260506051141 | 66 | 224 | 0.0 | 2.0 | 0.00 | 0.00 | 0.00 | 75 | 1016.0 |
| 20260506050640 | 66 | 233 | 2.0 | 4.0 | 0.00 | 0.00 | 0.00 | 75 | 1016.0 |
| 20260506050140 | 66 | 182 | 0.0 | 6.0 | 0.00 | 0.00 | 0.00 | 74 | 1016.0 |
| 20260506044640 | 66 | 112 | 4.0 | 4.0 | 0.00 | 0.00 | 0.00 | 74 | 1016.0 |
| 20260506044140 | 66 | 179 | 0.0 | 2.0 | 0.00 | 0.00 | 0.00 | 73 | 1016.0 |
| 20260506043640 | 66 | 197 | 3.0 | 4.0 | 0.00 | 0.00 | 0.00 | 73 | 1016.0 |
| 20260506043140 | 67 | 178 | 1.0 | 2.0 | 0.00 | 0.00 | 0.00 | 72 | 1016.0 |
| 20260506042641 | 67 | 218 | 1.0 | 3.0 | 0.00 | 0.00 | 0.00 | 72 | 1016.0 |
| 20260506042140 | 67 | 182 | 2.0 | 3.0 | 0.00 | 0.00 | 0.00 | 71 | 1016.0 |
| 20260506041641 | 67 | 265 | 2.0 | 5.0 | 0.00 | 0.00 | 0.00 | 71 | 1016.0 |
| 20260506041140 | 67 | 197 | 2.0 | 5.0 | 0.00 | 0.00 | 0.00 | 71 | 1016.0 |
| 20260506040640 | 67 | 216 | 2.0 | 3.0 | 0.00 | 0.00 | 0.00 | 70 | 1016.0 |
| 20260506040140 | 67 | 194 | 1.0 | 4.0 | 0.00 | 0.00 | 0.00 | 70 | 1016.0 |
| 20260506035640 | 67 | 182 | 0.0 | 4.0 | 0.00 | 0.00 | 0.00 | 69 | 1016.0 |
| 20260506035140 | 68 | 176 | 2.0 | 3.0 | 0.00 | 0.00 | 0.00 | 69 | 1016.0 |
| 20260506034641 | 68 | 188 | 3.0 | 3.0 | 0.00 | 0.00 | 0.00 | 69 | 1016.0 |
| 20260506034140 | 68 | 217 | 1.0 | 2.0 | 0.00 | 0.00 | 0.00 | 68 | 1017.0 |
| 20260506033642 | 68 | 213 | 2.0 | 3.0 | 0.00 | 0.00 | 0.00 | 68 | 1017.0 |
| 20260506033141 | 68 | 207 | 3.0 | 4.0 | 0.00 | 0.00 | 0.00 | 68 | 1016.0 |
| 20260506032640 | 68 | 189 | 3.0 | 6.0 | 0.00 | 0.00 | 0.00 | 68 | 1016.0 |
| 20260506032140 | 69 | 168 | 6.0 | 6.0 | 0.00 | 0.00 | 0.00 | 68 | 1016.0 |
| 20260506031641 | 69 | 221 | 3.0 | 8.0 | 0.00 | 0.00 | 0.00 | 67 | 1016.0 |
| 20260506031140 | 69 | 191 | 4.0 | 5.0 | 0.00 | 0.00 | 0.00 | 67 | 1016.0 |
| 20260506030641 | 69 | 174 | 3.0 | 3.0 | 0.00 | 0.00 | 0.00 | 67 | 1016.0 |
| 20260506030140 | 69 | 163 | 2.0 | 3.0 | 0.00 | 0.00 | 0.00 | 66 | 1016.0 |
| 20260506025640 | 70 | 199 | 3.0 | 3.0 | 0.00 | 0.00 | 0.00 | 66 | 1016.0 |
| 20260506025140 | 70 | 188 | 5.0 | 6.0 | 0.00 | 0.00 | 0.00 | 65 | 1016.0 |
| 20260506024640 | 70 | 190 | 1.0 | 6.0 | 0.00 | 0.00 | 0.00 | 65 | 1016.0 |
| 20260506024140 | 70 | 134 | 4.0 | 6.0 | 0.00 | 0.00 | 0.00 | 65 | 1016.0 |
| 20260506023640 | 70 | 176 | 3.0 | 4.0 | 0.00 | 0.00 | 0.00 | 64 | 1016.0 |
| 20260506023140 | 70 | 172 | 2.0 | 6.0 | 0.00 | 0.00 | 0.00 | 64 | 1016.0 |
| 20260506022640 | 71 | 186 | 3.0 | 6.0 | 0.00 | 0.00 | 0.00 | 63 | 1016.0 |
| 20260506022141 | 71 | 171 | 1.0 | 6.0 | 0.00 | 0.00 | 0.00 | 63 | 1016.0 |
| 20260506021641 | 71 | 221 | 2.0 | 5.0 | 0.00 | 0.00 | 0.00 | 62 | 1016.0 |
| 20260506021141 | 71 | 208 | 2.0 | 4.0 | 0.00 | 0.00 | 0.00 | 62 | 1016.0 |
| 20260506020647 | 71 | 193 | 1.0 | 7.0 | 0.00 | 0.00 | 0.00 | 61 | 1016.0 |
| 20260506020140 | 72 | 200 | 6.0 | 6.0 | 0.00 | 0.00 | 0.00 | 61 | 1016.0 |
| 20260506015640 | 72 | 188 | 3.0 | 6.0 | 0.00 | 0.00 | 0.00 | 60 | 1016.0 |
| 20260506015141 | 72 | 191 | 2.0 | 6.0 | 0.00 | 0.00 | 0.00 | 60 | 1016.0 |
| 20260506014640 | 72 | 186 | 3.0 | 6.0 | 0.00 | 0.00 | 0.00 | 59 | 1016.0 |
| 20260506014140 | 73 | 166 | 3.0 | 9.0 | 0.00 | 0.00 | 0.00 | 59 | 1016.0 |
| 20260506013641 | 73 | 192 | 2.0 | 8.0 | 0.00 | 0.00 | 0.00 | 58 | 1016.0 |
| 20260506013146 | 73 | 198 | 4.0 | 8.0 | 0.00 | 0.00 | 0.00 | 57 | 1016.0 |
| 20260506012640 | 73 | 209 | 6.0 | 8.0 | 0.00 | 0.00 | 0.00 | 57 | 1016.0 |
| 20260506012140 | 74 | 138 | 2.0 | 7.0 | 0.00 | 0.00 | 0.00 | 56 | 1015.0 |
| 20260506011640 | 74 | 183 | 5.0 | 8.0 | 0.00 | 0.00 | 0.00 | 56 | 1015.0 |
| 20260506011140 | 74 | 177 | 4.0 | 4.0 | 0.00 | 0.00 | 0.00 | 56 | 1015.0 |
| 20260506010640 | 74 | 164 | 4.0 | 4.0 | 0.00 | 0.00 | 0.00 | 55 | 1015.0 |
| 20260506010141 | 74 | 165 | 4.0 | 4.0 | 0.00 | 0.00 | 0.00 | 55 | 1015.0 |
| 20260506005640 | 75 | 190 | 4.0 | 6.0 | 0.00 | 0.00 | 0.00 | 55 | 1015.0 |
| 20260506005140 | 74 | 166 | 8.0 | 8.0 | 0.00 | 0.00 | 0.00 | 55 | 1015.0 |
| 20260506004641 | 74 | 163 | 5.0 | 5.0 | 0.00 | 0.00 | 0.00 | 53 | 1015.0 |
| 20260506004140 | 74 | 137 | 3.0 | 3.0 | 0.00 | 0.00 | 0.00 | 51 | 1015.0 |
| 20260506003641 | 74 | 225 | 0.0 | 0.0 | 0.00 | 0.00 | 0.00 | 48 | 1015.0 |
| 20260506003140 | 75 | 228 | 0.0 | 0.0 | 0.00 | 0.00 | 0.00 | 47 | 1015.0 |
| 20260506002640 | 75 | 228 | 0.0 | 0.0 | 0.00 | 0.00 | 0.00 | 47 | 1015.0 |
| 20260506002140 | 76 | 226 | 0.0 | 0.0 | 0.00 | 0.00 | 0.00 | 46 | 1014.0 |
| 20260506001640 | 76 | 246 | 0.0 | 0.0 | 0.00 | 0.00 | 0.00 | 45 | 1014.0 |
| 20260506001140 | 77 | 217 | 0.0 | 0.0 | 0.00 | 0.00 | 0.00 | 44 | 1014.0 |
| 20260506000640 | 77 | 255 | 0.0 | 0.0 | 0.00 | 0.00 | 0.00 | 44 | 1014.0 |
| 20260506000148 | 78 | 218 | 0.0 | 0.0 | 0.00 | 0.00 | 0.00 | 43 | 1014.0 |
| 20260505235640 | 78 | 224 | 0.0 | 0.0 | 0.00 | 0.00 | 0.00 | 42 | 1014.0 |
| 20260505235140 | 79 | 210 | 1.0 | 1.0 | 0.00 | 0.00 | 0.00 | 42 | 1014.0 |
| 20260505234641 | 79 | 233 | 0.0 | 0.0 | 0.00 | 0.00 | 0.00 | 42 | 1014.0 |
| 20260505234140 | 80 | 235 | 0.0 | 0.0 | 0.00 | 0.00 | 0.00 | 41 | 1014.0 |
| 20260505233641 | 80 | 225 | 0.0 | 2.0 | 0.00 | 0.00 | 0.00 | 41 | 1014.0 |
| 20260505233141 | 80 | 184 | 1.0 | 2.0 | 0.00 | 0.00 | 0.00 | 40 | 1014.0 |
| 20260505232640 | 81 | 226 | 0.0 | 2.0 | 0.00 | 0.00 | 0.00 | 40 | 1014.0 |
| 20260505232140 | 81 | 268 | 1.0 | 2.0 | 0.00 | 0.00 | 0.00 | 39 | 1014.0 |
| 20260505231640 | 81 | 214 | 1.0 | 2.0 | 0.00 | 0.00 | 0.00 | 38 | 1014.0 |
| 20260505231142 | 81 | 218 | 2.0 | 3.0 | 0.00 | 0.00 | 0.00 | 38 | 1014.0 |
| 20260505230640 | 81 | 253 | 0.0 | 2.0 | 0.00 | 0.00 | 0.00 | 38 | 1014.0 |
| 20260505230140 | 82 | 227 | 0.0 | 0.0 | 0.00 | 0.00 | 0.00 | 38 | 1014.0 |
| 20260505225640 | 82 | 230 | 2.0 | 3.0 | 0.00 | 0.00 | 0.00 | 38 | 1014.0 |
| 20260505225140 | 83 | 192 | 1.0 | 1.0 | 0.00 | 0.00 | 0.00 | 38 | 1014.0 |
| 20260505224641 | 83 | 239 | 4.0 | 4.0 | 0.00 | 0.00 | 0.00 | 36 | 1014.0 |
| 20260505224140 | 84 | 204 | 0.0 | 3.0 | 0.00 | 0.00 | 0.00 | 36 | 1014.0 |
| 20260505223641 | 84 | 124 | 1.0 | 7.0 | 0.00 | 0.00 | 0.00 | 35 | 1015.0 |
| 20260505223140 | 85 | 251 | 1.0 | 4.0 | 0.00 | 0.00 | 0.00 | 35 | 1014.0 |
| 20260505222640 | 85 | 213 | 5.0 | 5.0 | 0.00 | 0.00 | 0.00 | 33 | 1014.0 |
| 20260505222140 | 85 | 228 | 1.0 | 3.0 | 0.00 | 0.00 | 0.00 | 34 | 1014.0 |
| 20260505221642 | 85 | 240 | 0.0 | 0.0 | 0.00 | 0.00 | 0.00 | 34 | 1015.0 |
| 20260505221140 | 86 | 195 | 2.0 | 2.0 | 0.00 | 0.00 | 0.00 | 33 | 1014.0 |
| 20260505220641 | 87 | 235 | 0.0 | 3.0 | 0.00 | 0.00 | 0.00 | 32 | 1014.0 |
| 20260505220141 | 86 | 222 | 2.0 | 2.0 | 0.00 | 0.00 | 0.00 | 33 | 1014.0 |
| 20260505215640 | 86 | 191 | 2.0 | 6.0 | 0.00 | 0.00 | 0.00 | 33 | 1014.0 |
| 20260505215141 | 87 | 314 | 2.0 | 9.0 | 0.00 | 0.00 | 0.00 | 30 | 1014.0 |
| 20260505214641 | 87 | 208 | 1.0 | 4.0 | 0.00 | 0.00 | 0.00 | 31 | 1014.0 |
| 20260505214140 | 87 | 209 | 2.0 | 3.0 | 0.00 | 0.00 | 0.00 | 31 | 1014.0 |
| 20260505213641 | 87 | 208 | 0.0 | 4.0 | 0.00 | 0.00 | 0.00 | 33 | 1014.0 |
| 20260505213140 | 86 | 168 | 1.0 | 4.0 | 0.00 | 0.00 | 0.00 | 33 | 1014.0 |
| 20260505212640 | 86 | 241 | 3.0 | 3.0 | 0.00 | 0.00 | 0.00 | 34 | 1014.0 |
| 20260505212140 | 86 | 215 | 2.0 | 4.0 | 0.00 | 0.00 | 0.00 | 32 | 1014.0 |
| 20260505211640 | 86 | 138 | 2.0 | 3.0 | 0.00 | 0.00 | 0.00 | 33 | 1014.0 |
| 20260505211140 | 86 | 191 | 6.0 | 6.0 | 0.00 | 0.00 | 0.00 | 32 | 1014.0 |
| 20260505210641 | 86 | 200 | 3.0 | 7.0 | 0.00 | 0.00 | 0.00 | 32 | 1014.0 |
| 20260505210141 | 86 | 224 | 2.0 | 8.0 | 0.00 | 0.00 | 0.00 | 33 | 1014.0 |
| 20260505205641 | 87 | 191 | 2.0 | 5.0 | 0.00 | 0.00 | 0.00 | 33 | 1015.0 |
| 20260505205148 | 87 | 315 | 3.0 | 3.0 | 0.00 | 0.00 | 0.00 | 31 | 1015.0 |
| 20260505204640 | 87 | 210 | 1.0 | 3.0 | 0.00 | 0.00 | 0.00 | 31 | 1015.0 |
| 20260505204140 | 87 | 335 | 5.0 | 5.0 | 0.00 | 0.00 | 0.00 | 32 | 1015.0 |
| 20260505203640 | 86 | 227 | 2.0 | 5.0 | 0.00 | 0.00 | 0.00 | 34 | 1015.0 |
| 20260505203140 | 84 | 143 | 4.0 | 7.0 | 0.00 | 0.00 | 0.00 | 35 | 1015.0 |
| 20260505202641 | 84 | 206 | 1.0 | 7.0 | 0.00 | 0.00 | 0.00 | 35 | 1015.0 |
| 20260505202140 | 84 | 328 | 1.0 | 1.0 | 0.00 | 0.00 | 0.00 | 35 | 1015.0 |
| 20260505201641 | 84 | 259 | 1.0 | 1.0 | 0.00 | 0.00 | 0.00 | 36 | 1015.0 |
| 20260505201141 | 85 | 276 | 2.0 | 5.0 | 0.00 | 0.00 | 0.00 | 35 | 1015.0 |
| 20260505200643 | 85 | 239 | 0.0 | 3.0 | 0.00 | 0.00 | 0.00 | 34 | 1015.0 |
| 20260505200141 | 86 | 233 | 0.0 | 5.0 | 0.00 | 0.00 | 0.00 | 33 | 1015.0 |
| 20260505195641 | 86 | 296 | 0.0 | 5.0 | 0.00 | 0.00 | 0.00 | 35 | 1015.0 |
| 20260505195143 | 86 | 188 | 4.0 | 7.0 | 0.00 | 0.00 | 0.00 | 34 | 1015.0 |
| 20260505194641 | 85 | 272 | 0.0 | 2.0 | 0.00 | 0.00 | 0.00 | 34 | 1015.0 |
| 20260505194140 | 85 | 209 | 2.0 | 3.0 | 0.00 | 0.00 | 0.00 | 35 | 1015.0 |
| 20260505193642 | 85 | 189 | 2.0 | 2.0 | 0.00 | 0.00 | 0.00 | 36 | 1016.0 |
| 20260505193141 | 86 | 197 | 2.0 | 5.0 | 0.00 | 0.00 | 0.00 | 35 | 1016.0 |
| 20260505192641 | 85 | 21 | 4.0 | 4.0 | 0.00 | 0.00 | 0.00 | 35 | 1016.0 |
| 20260505192141 | 85 | 128 | 8.0 | 8.0 | 0.00 | 0.00 | 0.00 | 35 | 1016.0 |
| 20260505191640 | 85 | 137 | 5.0 | 8.0 | 0.00 | 0.00 | 0.00 | 34 | 1016.0 |
| 20260505191141 | 85 | 202 | 5.0 | 9.0 | 0.00 | 0.00 | 0.00 | 35 | 1016.0 |
| 20260505190640 | 85 | 187 | 4.0 | 9.0 | 0.00 | 0.00 | 0.00 | 36 | 1016.0 |
| 20260505190140 | 87 | 175 | 6.0 | 6.0 | 0.00 | 0.00 | 0.00 | 34 | 1016.0 |
| 20260505185640 | 87 | 293 | 1.0 | 4.0 | 0.00 | 0.00 | 0.00 | 34 | 1016.0 |
| 20260505185140 | 87 | 188 | 5.0 | 5.0 | 0.00 | 0.00 | 0.00 | 33 | 1016.0 |
| 20260505184641 | 87 | 203 | 3.0 | 3.0 | 0.00 | 0.00 | 0.00 | 35 | 1017.0 |
| 20260505184140 | 85 | 341 | 0.0 | 1.0 | 0.00 | 0.00 | 0.00 | 34 | 1017.0 |
| 20260505183642 | 86 | 195 | 6.0 | 6.0 | 0.00 | 0.00 | 0.00 | 35 | 1017.0 |
| 20260505183140 | 85 | 175 | 4.0 | 5.0 | 0.00 | 0.00 | 0.00 | 34 | 1017.0 |
| 20260505182642 | 85 | 255 | 2.0 | 3.0 | 0.00 | 0.00 | 0.00 | 35 | 1017.0 |
| 20260505182141 | 85 | 211 | 2.0 | 2.0 | 0.00 | 0.00 | 0.00 | 35 | 1017.0 |
| 20260505181640 | 85 | 127 | 2.0 | 5.0 | 0.00 | 0.00 | 0.00 | 33 | 1017.0 |
| 20260505181141 | 86 | 268 | 3.0 | 7.0 | 0.00 | 0.00 | 0.00 | 33 | 1017.0 |
| 20260505180641 | 86 | 241 | 1.0 | 4.0 | 0.00 | 0.00 | 0.00 | 34 | 1017.0 |
| 20260505180141 | 86 | 210 | 6.0 | 7.0 | 0.00 | 0.00 | 0.00 | 35 | 1017.0 |
| 20260505175640 | 85 | 171 | 4.0 | 5.0 | 0.00 | 0.00 | 0.00 | 38 | 1017.0 |
| 20260505175140 | 86 | 185 | 2.0 | 6.0 | 0.00 | 0.00 | 0.00 | 35 | 1017.0 |
| 20260505174640 | 84 | 280 | 1.0 | 3.0 | 0.00 | 0.00 | 0.00 | 36 | 1017.0 |
| 20260505174140 | 84 | 210 | 1.0 | 4.0 | 0.00 | 0.00 | 0.00 | 40 | 1017.0 |
| 20260505173640 | 84 | 181 | 3.0 | 4.0 | 0.00 | 0.00 | 0.00 | 37 | 1017.0 |
| 20260505173141 | 84 | 169 | 4.0 | 5.0 | 0.00 | 0.00 | 0.00 | 39 | 1017.0 |
| 20260505172640 | 84 | 141 | 6.0 | 6.0 | 0.00 | 0.00 | 0.00 | 37 | 1017.0 |
| 20260505172141 | 84 | 174 | 3.0 | 9.0 | 0.00 | 0.00 | 0.00 | 38 | 1017.0 |
| 20260505171641 | 84 | 171 | 5.0 | 5.0 | 0.00 | 0.00 | 0.00 | 39 | 1017.0 |
| 20260505171140 | 84 | 213 | 1.0 | 8.0 | 0.00 | 0.00 | 0.00 | 41 | 1017.0 |
| 20260505170640 | 84 | 200 | 2.0 | 7.0 | 0.00 | 0.00 | 0.00 | 41 | 1017.0 |
| 20260505170141 | 83 | 160 | 3.0 | 5.0 | 0.00 | 0.00 | 0.00 | 40 | 1017.0 |
| 20260505165641 | 83 | 211 | 2.0 | 7.0 | 0.00 | 0.00 | 0.00 | 39 | 1017.0 |
| 20260505165140 | 82 | 154 | 5.0 | 5.0 | 0.00 | 0.00 | 0.00 | 43 | 1017.0 |
| 20260505164640 | 81 | 114 | 4.0 | 4.0 | 0.00 | 0.00 | 0.00 | 44 | 1017.0 |
| 20260505163749 | 80 | 222 | 4.0 | 4.0 | 0.00 | 0.00 | 0.00 | 43 | 1017.0 |
| 20260505163141 | 81 | 197 | 2.0 | 5.0 | 0.00 | 0.00 | 0.00 | 44 | 1018.0 |
| 20260505162641 | 81 | 247 | 4.0 | 5.0 | 0.00 | 0.00 | 0.00 | 48 | 1018.0 |
| 20260505162141 | 80 | 140 | 5.0 | 6.0 | 0.00 | 0.00 | 0.00 | 45 | 1018.0 |
| 20260505161641 | 81 | 219 | 4.0 | 4.0 | 0.00 | 0.00 | 0.00 | 46 | 1018.0 |
| 20260505161143 | 81 | 210 | 3.0 | 3.0 | 0.00 | 0.00 | 0.00 | 46 | 1018.0 |
| 20260505160641 | 81 | 128 | 2.0 | 4.0 | 0.00 | 0.00 | 0.00 | 48 | 1018.0 |
| 20260505160141 | 83 | 180 | 4.0 | 7.0 | 0.00 | 0.00 | 0.00 | 45 | 1018.0 |
| 20260505153141 | 82 | 182 | 5.0 | 7.0 | 0.00 | 0.00 | 0.00 | 46 | 1018.0 |
| 20260505152640 | 81 | 212 | 1.0 | 7.0 | 0.00 | 0.00 | 0.00 | 50 | 1018.0 |
| 20260505152142 | 82 | 3 | 2.0 | 4.0 | 0.00 | 0.00 | 0.00 | 47 | 1018.0 |
| 20260505151641 | 81 | 317 | 8.0 | 8.0 | 0.00 | 0.00 | 0.00 | 47 | 1018.0 |
| 20260505151141 | 82 | 301 | 1.0 | 7.0 | 0.00 | 0.00 | 0.00 | 48 | 1018.0 |
| 20260505150642 | 82 | 200 | 4.0 | 4.0 | 0.00 | 0.00 | 0.00 | 49 | 1018.0 |
| 20260505150141 | 81 | 293 | 0.0 | 5.0 | 0.00 | 0.00 | 0.00 | 50 | 1018.0 |